| time (UTC) | temp F | wind direction | speed MPH | gust MPH | rain 1hr in | rain 24hr in | rain mn in | humidity % | barometer mb |
| 20260508041027 | 72 | 295 | 3.0 | 12.0 | 0.00 | 0.00 | 0.00 | 46 | 1015.0 |
| 20260508040047 | 72 | 309 | 2.0 | 8.0 | 0.00 | 0.00 | 0.00 | 47 | 1015.2 |
| 20260508035024 | 72 | 263 | 2.0 | 9.0 | 0.00 | 0.00 | 0.00 | 46 | 1015.2 |
| 20260508034028 | 71 | 8 | 3.0 | 12.0 | 0.00 | 0.00 | 0.00 | 47 | 1015.3 |
| 20260508033032 | 70 | 316 | 4.0 | 12.0 | 0.00 | 0.00 | 0.00 | 49 | 1015.4 |
| 20260508030933 | 69 | 307 | 4.0 | 12.0 | 0.00 | 0.00 | 0.00 | 49 | 1015.6 |
| 20260508025943 | 69 | 274 | 5.0 | 12.0 | 0.00 | 0.00 | 0.00 | 49 | 1015.6 |
| 20260508025001 | 69 | 262 | 5.0 | 11.0 | 0.00 | 0.00 | 0.00 | 49 | 1015.8 |
| 20260508023950 | 69 | 257 | 3.0 | 11.0 | 0.00 | 0.00 | 0.00 | 49 | 1015.8 |
| 20260508023009 | 69 | 299 | 4.0 | 8.0 | 0.00 | 0.00 | 0.00 | 49 | 1016.0 |
| 20260508022012 | 69 | 338 | 4.0 | 14.0 | 0.00 | 0.00 | 0.00 | 50 | 1016.1 |
| 20260508021010 | 68 | 303 | 4.0 | 14.0 | 0.00 | 0.00 | 0.00 | 50 | 1016.4 |
| 20260508020024 | 67 | 330 | 3.0 | 13.0 | 0.00 | 0.00 | 0.00 | 52 | 1016.6 |
| 20260508013827 | 65 | 174 | 4.0 | 12.0 | 0.00 | 0.00 | 0.00 | 53 | 1017.1 |
| 20260508010508 | 63 | 323 | 4.0 | 16.0 | 0.00 | 0.00 | 0.00 | 56 | 1017.5 |
| 20260508004334 | 62 | 349 | 6.0 | 15.0 | 0.00 | 0.00 | 0.00 | 58 | 1017.6 |
| 20260508003305 | 61 | 298 | 6.0 | 15.0 | 0.00 | 0.00 | 0.00 | 58 | 1017.7 |
| 20260508001111 | 59 | 285 | 6.0 | 18.0 | 0.00 | 0.00 | 0.00 | 59 | 1017.8 |
| 20260508000041 | 59 | 314 | 5.0 | 18.0 | 0.00 | 0.00 | 0.00 | 60 | 1018.0 |
| 20260507235050 | 58 | 349 | 6.0 | 16.0 | 0.00 | 0.00 | 0.00 | 61 | 1018.2 |
| 20260507234105 | 58 | 314 | 6.0 | 16.0 | 0.00 | 0.00 | 0.00 | 61 | 1018.1 |
| 20260507233047 | 57 | 332 | 7.0 | 16.0 | 0.00 | 0.00 | 0.00 | 62 | 1018.0 |
| 20260507232047 | 56 | 324 | 8.0 | 15.0 | 0.00 | 0.00 | 0.00 | 62 | 1018.0 |
| 20260507231108 | 56 | 278 | 7.0 | 14.0 | 0.00 | 0.00 | 0.00 | 63 | 1018.3 |
| 20260507230125 | 55 | 241 | 6.0 | 16.0 | 0.00 | 0.00 | 0.00 | 63 | 1018.4 |
| 20260507222844 | 53 | 304 | 7.0 | 16.0 | 0.00 | 0.00 | 0.00 | 65 | 1018.3 |
| 20260507221829 | 53 | 296 | 6.0 | 16.0 | 0.00 | 0.00 | 0.00 | 65 | 1018.4 |
| 20260507220848 | 53 | 342 | 5.0 | 14.0 | 0.00 | 0.00 | 0.00 | 65 | 1018.4 |
| 20260507215857 | 52 | 326 | 6.0 | 13.0 | 0.00 | 0.00 | 0.00 | 66 | 1018.2 |
| 20260507214847 | 52 | 308 | 5.0 | 11.0 | 0.00 | 0.00 | 0.00 | 66 | 1018.1 |
| 20260507212742 | 50 | 285 | 6.0 | 13.0 | 0.00 | 0.00 | 0.00 | 68 | 1018.0 |
| 20260507211754 | 50 | 311 | 5.0 | 13.0 | 0.00 | 0.00 | 0.00 | 69 | 1018.1 |
| 20260507210724 | 49 | 300 | 5.0 | 12.0 | 0.00 | 0.00 | 0.00 | 69 | 1018.1 |
| 20260507205726 | 49 | 351 | 5.0 | 12.0 | 0.00 | 0.00 | 0.00 | 69 | 1018.2 |
| 20260507203630 | 49 | 266 | 5.0 | 15.0 | 0.00 | 0.00 | 0.00 | 70 | 1018.2 |
| 20260507202638 | 49 | 317 | 5.0 | 13.0 | 0.00 | 0.00 | 0.00 | 70 | 1018.1 |
| 20260507201623 | 48 | 312 | 5.0 | 11.0 | 0.00 | 0.00 | 0.00 | 70 | 1018.2 |
| 20260507200553 | 48 | 8 | 5.0 | 12.0 | 0.00 | 0.00 | 0.00 | 69 | 1018.1 |
| 20260507195608 | 48 | 273 | 4.0 | 10.0 | 0.00 | 0.00 | 0.00 | 69 | 1018.1 |
| 20260507194545 | 48 | 313 | 4.0 | 11.0 | 0.00 | 0.00 | 0.00 | 69 | 1018.0 |
| 20260507193556 | 48 | 319 | 5.0 | 11.0 | 0.00 | 0.00 | 0.00 | 69 | 1017.9 |
| 20260507192526 | 48 | 318 | 4.0 | 9.0 | 0.00 | 0.00 | 0.00 | 69 | 1017.8 |
| 20260507191536 | 48 | 309 | 4.0 | 9.0 | 0.00 | 0.00 | 0.00 | 69 | 1017.8 |
| 20260507190524 | 48 | 311 | 4.0 | 9.0 | 0.00 | 0.00 | 0.00 | 68 | 1017.8 |
| 20260507185508 | 48 | 295 | 3.0 | 9.0 | 0.00 | 0.00 | 0.00 | 68 | 1017.8 |
| 20260507184527 | 48 | 309 | 4.0 | 8.0 | 0.00 | 0.00 | 0.00 | 68 | 1017.8 |
| 20260507183529 | 48 | 313 | 4.0 | 10.0 | 0.00 | 0.00 | 0.00 | 67 | 1017.8 |
| 20260507182501 | 49 | 336 | 4.0 | 10.0 | 0.00 | 0.00 | 0.00 | 66 | 1017.8 |
| 20260507181453 | 49 | 288 | 4.0 | 9.0 | 0.00 | 0.00 | 0.00 | 66 | 1017.8 |
| 20260507180431 | 49 | 302 | 4.0 | 9.0 | 0.00 | 0.00 | 0.00 | 65 | 1017.9 |
| 20260507175359 | 49 | 316 | 3.0 | 9.0 | 0.00 | 0.00 | 0.00 | 65 | 1017.8 |
| 20260507174411 | 49 | 285 | 3.0 | 7.0 | 0.00 | 0.00 | 0.00 | 65 | 1017.8 |
| 20260507173357 | 50 | 323 | 3.0 | 7.0 | 0.00 | 0.00 | 0.00 | 64 | 1017.8 |
| 20260507172345 | 50 | 308 | 3.0 | 9.0 | 0.00 | 0.00 | 0.00 | 62 | 1017.9 |
| 20260507171400 | 51 | 323 | 3.0 | 9.0 | 0.00 | 0.00 | 0.00 | 62 | 1018.0 |
| 20260507170354 | 51 | 314 | 4.0 | 8.0 | 0.00 | 0.00 | 0.00 | 61 | 1018.1 |
| 20260507163135 | 51 | 240 | 3.0 | 8.0 | 0.00 | 0.00 | 0.00 | 61 | 1018.2 |
| 20260507162123 | 51 | 319 | 3.0 | 8.0 | 0.00 | 0.00 | 0.00 | 60 | 1018.4 |
| 20260507161139 | 51 | 303 | 3.0 | 8.0 | 0.00 | 0.00 | 0.00 | 60 | 1018.4 |
| 20260507160138 | 51 | 323 | 3.0 | 7.0 | 0.00 | 0.00 | 0.00 | 60 | 1018.5 |
| 20260507154041 | 51 | 238 | 3.0 | 7.0 | 0.00 | 0.00 | 0.00 | 59 | 1018.5 |
| 20260507153029 | 51 | 276 | 2.0 | 7.0 | 0.00 | 0.00 | 0.00 | 59 | 1018.5 |
| 20260507152022 | 52 | 257 | 2.0 | 6.0 | 0.00 | 0.00 | 0.00 | 58 | 1018.5 |
| 20260507151046 | 52 | 285 | 2.0 | 6.0 | 0.00 | 0.00 | 0.00 | 58 | 1018.7 |
| 20260507150053 | 52 | 311 | 2.0 | 6.0 | 0.00 | 0.00 | 0.00 | 58 | 1018.7 |
| 20260507145032 | 52 | 265 | 2.0 | 6.0 | 0.00 | 0.00 | 0.00 | 58 | 1018.8 |
| 20260507142905 | 52 | 222 | 1.0 | 5.0 | 0.00 | 0.00 | 0.00 | 58 | 1018.8 |
| 20260507141838 | 52 | 326 | 1.0 | 5.0 | 0.00 | 0.00 | 0.00 | 57 | 1018.9 |
| 20260507135747 | 52 | 308 | 2.0 | 10.0 | 0.00 | 0.00 | 0.00 | 56 | 1018.7 |
| 20260507134729 | 52 | 255 | 2.0 | 10.0 | 0.00 | 0.00 | 0.00 | 56 | 1018.7 |
| 20260507131423 | 53 | 314 | 1.0 | 6.0 | 0.00 | 0.00 | 0.00 | 54 | 1018.7 |
| 20260507130437 | 53 | 243 | 2.0 | 7.0 | 0.00 | 0.00 | 0.00 | 53 | 1018.6 |
| 20260507124335 | 54 | 229 | 3.0 | 12.0 | 0.00 | 0.00 | 0.00 | 52 | 1018.5 |
| 20260507123359 | 54 | 211 | 4.0 | 13.0 | 0.00 | 0.00 | 0.00 | 52 | 1018.5 |
| 20260507122332 | 54 | 252 | 3.0 | 16.0 | 0.00 | 0.00 | 0.00 | 52 | 1018.6 |
| 20260507121330 | 55 | 255 | 4.0 | 16.0 | 0.00 | 0.00 | 0.00 | 51 | 1018.7 |
| 20260507115250 | 55 | 238 | 5.0 | 13.0 | 0.00 | 0.00 | 0.00 | 51 | 1018.9 |
| 20260507113143 | 55 | 212 | 4.0 | 14.0 | 0.00 | 0.00 | 0.00 | 50 | 1018.9 |
| 20260507111029 | 55 | 264 | 4.0 | 17.0 | 0.00 | 0.00 | 0.00 | 49 | 1018.5 |
| 20260507110052 | 55 | 341 | 3.0 | 17.0 | 0.00 | 0.00 | 0.00 | 49 | 1018.4 |
| 20260507105028 | 55 | 255 | 2.0 | 10.0 | 0.00 | 0.00 | 0.00 | 49 | 1018.4 |
| 20260507104046 | 56 | 266 | 3.0 | 10.0 | 0.00 | 0.00 | 0.00 | 48 | 1018.3 |
| 20260507103109 | 56 | 251 | 4.0 | 14.0 | 0.00 | 0.00 | 0.00 | 47 | 1018.2 |
| 20260507101013 | 56 | 257 | 3.0 | 11.0 | 0.00 | 0.00 | 0.00 | 47 | 1018.3 |
| 20260507093733 | 57 | 233 | 3.0 | 10.0 | 0.00 | 0.00 | 0.00 | 45 | 1018.1 |
| 20260507091523 | 57 | 255 | 4.0 | 14.0 | 0.00 | 0.00 | 0.00 | 44 | 1017.7 |
| 20260507090515 | 58 | 215 | 4.0 | 14.0 | 0.00 | 0.00 | 0.00 | 44 | 1017.5 |
| 20260507085535 | 58 | 285 | 4.0 | 11.0 | 0.00 | 0.00 | 0.00 | 44 | 1017.4 |
| 20260507082257 | 58 | 228 | 4.0 | 11.0 | 0.00 | 0.00 | 0.00 | 43 | 1017.0 |
| 20260507081235 | 59 | 269 | 4.0 | 13.0 | 0.00 | 0.00 | 0.00 | 43 | 1016.8 |
| 20260507080212 | 59 | 250 | 4.0 | 13.0 | 0.00 | 0.00 | 0.00 | 42 | 1016.3 |
| 20260507075234 | 59 | 284 | 4.0 | 11.0 | 0.00 | 0.00 | 0.00 | 42 | 1016.2 |
| 20260507073112 | 59 | 219 | 4.0 | 12.0 | 0.00 | 0.00 | 0.00 | 41 | 1015.9 |
| 20260507070950 | 60 | 247 | 5.0 | 15.0 | 0.00 | 0.00 | 0.00 | 39 | 1015.5 |
| 20260507064846 | 61 | 205 | 6.0 | 20.0 | 0.00 | 0.00 | 0.00 | 38 | 1015.2 |
| 20260507062803 | 62 | 238 | 6.0 | 17.0 | 0.00 | 0.00 | 0.00 | 36 | 1015.0 |
| 20260507061823 | 62 | 242 | 7.0 | 21.0 | 0.00 | 0.00 | 0.00 | 34 | 1014.8 |
| 20260507060806 | 63 | 217 | 7.0 | 21.0 | 0.00 | 0.00 | 0.00 | 32 | 1014.7 |
| 20260507055801 | 64 | 242 | 6.0 | 19.0 | 0.00 | 0.00 | 0.00 | 33 | 1014.5 |
| 20260507054734 | 64 | 253 | 7.0 | 19.0 | 0.00 | 0.00 | 0.00 | 33 | 1014.3 |
| 20260507053755 | 64 | 238 | 8.0 | 16.0 | 0.00 | 0.00 | 0.00 | 32 | 1013.9 |
| 20260507052741 | 65 | 266 | 8.0 | 20.0 | 0.00 | 0.00 | 0.00 | 32 | 1013.9 |
| 20260507051733 | 65 | 224 | 8.0 | 23.0 | 0.00 | 0.00 | 0.00 | 32 | 1013.9 |
| 20260507050732 | 66 | 231 | 9.0 | 23.0 | 0.00 | 0.00 | 0.00 | 31 | 1013.8 |
| 20260507045712 | 66 | 224 | 7.0 | 19.0 | 0.00 | 0.00 | 0.00 | 30 | 1013.5 |
| 20260507044640 | 66 | 266 | 8.0 | 23.0 | 0.00 | 0.00 | 0.00 | 33 | 1013.4 |
| 20260507043700 | 66 | 238 | 10.0 | 24.0 | 0.00 | 0.00 | 0.00 | 33 | 1013.1 |
| 20260507042659 | 67 | 229 | 9.0 | 26.0 | 0.00 | 0.00 | 0.00 | 33 | 1012.9 |